Location: Huntsville
(41.2590°N, 111.7678°W)
Time: 23:57:17
(UTC+00:00)

Tiangong - Visible Passes

Search period start: 21 September 2021 00:00
Search period end: 01 October 2021 00:00
Orbit: 380 x 385 km, 41.5° (Epoch: 20 September)

Date Brightness Start Highest point End Pass type
(mag) Time Alt. Az. Time Alt. Az. Time Alt. Az.
24 Sep 4.1 12:03:51 10° SSE 12:04:16 10° SE 12:04:43 10° SE visible
25 Sep 2.8 12:37:44 10° SW 12:40:29 28° SSE 12:43:14 10° E visible
26 Sep 3.3 11:39:50 16° SSE 11:40:28 17° SSE 11:42:39 10° ESE visible
27 Sep 1.9 12:14:55 19° SW 12:16:49 43° SSE 12:19:50 10° E visible
28 Sep 3.2 11:17:46 23° ESE 11:17:46 23° ESE 11:19:30 10° E visible
28 Sep 1.1 12:50:12 10° WSW 12:53:22 83° SSE 12:56:32 10° E visible
29 Sep 1.2 11:52:45 53° SSW 11:53:13 63° SSE 11:56:21 10° E visible
30 Sep 4.2 10:55:32 15° E 10:55:32 15° E 10:56:09 10° E visible
30 Sep 1.0 12:27:43 19° W 12:29:51 86° N 12:33:01 10° E visible
